Regional Weather Roundup
Issued by NWS Little Rock, AR

Home | Current Version | Previous Version | Graphics & Text | Print | Product List | Glossary On
Versions: 1 2 3 4 5 6 7 8 9 10 11 12 13 14 15 16 17 18 19 20 21 22 23 24 25 26 27 28 29 30 31 32 33 34 35 36 37 38 39 40 41 42 43 44 45 46 47 48 49 50
000
ASUS44 KLZK 280505
RWRLZK

WEATHER ROUNDUP FOR ARKANSAS
NATIONAL WEATHER SERVICE LITTLE ROCK AR
1200 AM CDT TUE MAR 28 2017

NOTE: "FAIR" INDICATES FEW OR NO CLOUDS BELOW 12,000 FEET WITH NO
SIGNIFICANT WEATHER AND/OR OBSTRUCTIONS TO VISIBILITY.

ARZ001-003-010-029-280600-
NORTHWEST ARKANSAS

CITY           SKY/WX    TMP DP  RH WIND       PRES   REMARKS
FAYETTEVILLE   CLOUDY    52  48  86 NE5       29.96F
FORT SMITH     CLEAR     52  48  86 W3        29.96R
HARRISON       CLOUDY    53  49  86 N5        29.96S
BENTONVILLE    CLOUDY    52  45  76 NE5       29.97S
ROGERS         CLOUDY    51  47  86 N6        29.97F
SILOAM SPGS    CLOUDY    52  45  76 NE6       29.95F
HIGHFILL       CLOUDY    52  48  86 N9        29.96S
$$

ARZ004-005-016-280600-
NORTH CENTRAL ARKANSAS

CITY           SKY/WX    TMP DP  RH WIND       PRES   REMARKS
BATESVILLE     CLEAR     59  52  77 NW5       29.94R
FLIPPIN        PTCLDY    54  46  76 NW3       29.93F
MTN HOME       PTCLDY    50  49  96 CALM      29.95R
$$

ARZ040-041-280600-
WEST CENTRAL ARKANSAS

CITY           SKY/WX    TMP DP  RH WIND       PRES   REMARKS
MENA           CLEAR     52  52 100 CALM      29.96R
MOUNT IDA      CLEAR     54  52  93 CALM      29.91S
$$

ARZ009-017-025-026-028-280600-
NORTHEAST ARKANSAS

CITY           SKY/WX    TMP DP  RH WIND       PRES   REMARKS
CORNING        FAIR      59  55  88 N8        29.92R
JONESBORO      MOCLDY    58  55  90 N5        29.91R
NEWPORT        PTCLDY    58  54  86 MISG      29.92R
WALNUT RIDGE   PTCLDY    57  52  82 NW7       29.92R
BLYTHEVILLE    FOG       56  56 100 SW3       29.90R VSB 1/2
$$

ARZ022-023-033-042-044-280600-
CENTRAL ARKANSAS

CITY           SKY/WX    TMP DP  RH WIND       PRES   REMARKS
LITTLE ROCK    PTCLDY    60  55  83 NW3       29.92R
JACKSONVILLE   CLEAR     62  55  77 CALM      29.91R
CONWAY           N/A     57  55  94 CALM      29.91S
SEARCY         PTCLDY    62  55  77 N5        29.94R
HOT SPRINGS    CLEAR     58  53  84 W3        29.92S
RUSSELLVILLE   PTCLDY    54  52  93 CALM      29.93R
CLINTON        FAIR      57  52  82 CALM      29.94R
$$

ARZ036-280600-
EAST ARKANSAS

CITY           SKY/WX    TMP DP  RH WIND       PRES   REMARKS
WEST MEMPHIS   CLEAR     60  59  96 E3        29.89R
$$

ARZ050-053-066-070-073-280600-
SOUTHWEST ARKANSAS

CITY           SKY/WX    TMP DP  RH WIND       PRES   REMARKS
ARKADELPHIA    FAIR      60  56  86 CALM      29.92R
CAMDEN         CLEAR     63  55  77 NW3       29.91R
TEXARKANA      PTCLDY    63  57  81 N5        29.91S
EL DORADO      CLEAR     62  61  96 CALM      29.91R
DE QUEEN       PTCLDY    58  53  84 NE3       29.90R
$$

ARZ056-057-069-280600-
SOUTHEAST ARKANSAS

CITY           SKY/WX    TMP DP  RH WIND       PRES   REMARKS
PINE BLUFF     PTCLDY    63  56  78 NW6       29.91R
STUTTGART      PTCLDY    63  52  67 NW10      29.92R
MONTICELLO     CLEAR     68  61  78 CALM      29.90R

$$





USA.gov is the U.S. government's official web portal to all federal, state and local government web resources and services.